Probability
0 0 0 0 0 0 0 0 0 0 0 0 0 0 0 0 0 0 0 1 2 2 1 0 0 0 0 1 1 0 0 0 1 0 0 1 1 1 1 0 0 0 0 0
0 0 0 0 0 0 0 0 0 0 0 0 0 0 0 0 0 0 0 0 1 1 0 0 0 0 1 2 3 1 1 1 1 1 1 2 2 2 2 1 1 0 0 0
0 0 0 0 0 0 0 0 0 0 0 0 0 0 0 0 0 0 0 0 0 0 0 0 0 0 1 4 5 4 3 3 3 2 3 3 3 3 3 2 1 0 0 0
0 0 0 0 0 0 0 0 0 0 0 0 0 0 0 0 0 0 0 0 0 0 0 0 0 0 1 4 6 6 6 5 5 4 4 3 2 1 2 2 1 0 0 0
0 0 0 0 0 0 0 0 0 0 0 0 0 0 0 0 0 0 0 0 0 1 1 1 0 0 1 3 4 5 5 6 6 6 5 4 3 1 1 1 0 0 0 0
0 0 0 0 0 0 0 0 0 0 0 0 0 0 0 0 0 0 0 0 0 1 2 1 0 0 0 1 1 2 2 3 4 5 5 5 4 2 0 0 0 0 0 0
0 0 0 0 0 0 0 0 0 0 0 0 0 0 0 0 0 0 0 0 1 2 2 1 0 0 0 0 0 0 0 1 1 2 3 3 3 2 1 0 0 0 0 0
0 0 0 0 0 0 0 0 0 0 0 0 0 0 0 0 0 0 0 0 2 2 2 0 0 0 0 0 0 0 0 0 0 0 1 1 2 2 1 0 0 0 0 0
0 0 0 0 0 0 0 0 0 0 0 0 0 0 0 0 0 0 0 0 1 2 1 0 0 0 0 0 0 0 0 0 0 0 0 0 1 1 0 0 0 0 0 0
0 0 0 0 0 0 0 0 0 0 0 0 0 0 0 0 0 0 0 0 0 1 1 0 0 0 0 0 0 0 0 0 0 0 0 0 0 0 0 0 0 0 0 0
0 0 0 0 0 0 0 0 0 0 0 0 0 0 0 0 0 1 0 0 0 0 0 0 0 0 0 0 0 0 0 0 0 0 0 0 0 0 0 0 0 0 0 0
0 0 0 0 0 0 0 0 0 0 0 0 0 0 0 0 0 0 0 0 0 0 0 0 0 0 0 0 0 0 0 0 0 0 0 0 0 0 0 0 0 0 0 0
0 0 0 0 0 0 0 0 0 0 0 0 0 0 0 0 0 0 0 0 0 0 0 0 0 0 0 0 1 1 1 0 0 1 1 1 1 0 0 0 0 0 0 0
0 0 0 0 0 0 0 0 0 0 0 0 0 0 0 0 0 0 0 0 0 0 0 0 0 0 0 0 1 2 2 1 1 2 2 2 1 0 0 0 0 0 0 0
0 0 0 0 0 0 0 0 0 0 0 0 0 0 0 0 0 0 0 0 0 0 0 0 0 0 0 0 1 1 2 2 2 3 3 3 2 0 0 0 0 0 0 0
0 0 0 0 0 0 0 0 0 0 0 0 0 0 0 0 0 0 0 0 0 0 0 0 0 0 0 0 0 0 1 1 2 2 2 2 1 0 0 0 0 0 0 0
0 0 0 0 0 0 0 0 0 0 0 0 0 0 0 0 0 0 0 0 0 0 0 0 0 0 0 0 0 0 0 0 1 1 1 1 1 0 0 0 0 0 0 0
0 0 0 0 0 0 0 0 0 0 0 0 0 0 0 0 0 0 0 0 0 0 0 0 0 0 0 0 0 0 0 0 0 0 0 0 0 0 0 0 0 0 0 0
0 0 0 0 0 0 0 0 0 0 0 0 0 0 0 0 0 0 0 0 0 0 0 0 0 0 0 0 0 0 0 0 0 0 0 0 0 0 0 0 0 0 0 0
0 0 0 0 0 0 0 0 0 0 0 0 0 0 0 0 0 0 0 0 0 0 0 0 0 0 0 0 0 0 0 0 0 0 0 0 0 0 0 0 0 0 0 0
0 0 0 0 0 0 0 0 0 0 0 0 0 0 0 0 0 0 0 0 0 0 0 0 0 0 0 0 0 0 0 0 0 0 0 0 0 0 0 0 0 0 0 0
0 0 0 0 0 0 0 0 0 0 0 0 0 0 0 0 0 0 0 0 0 0 0 0 0 0 0 0 0 0 0 0 0 0 0 0 0 0 0 0 0 0 0 0
0 0 0 0 0 0 0 0 0 0 0 0 0 0 0 0 0 0 0 0 0 0 0 0 0 0 0 0 0 0 0 0 0 0 0 0 0 0 0 0 0 0 0 0
0 0 0 0 0 0 0 0 0 0 0 0 0 0 0 0 0 0 0 0 0 0 0 0 0 0 0 0 0 0 0 0 0 0 0 0 0 0 0 0 0 0 0 0
0 0 0 0 0 0 0 0 0 0 0 0 0 0 0 0 0 0 0 0 0 0 0 0 0 0 0 0 0 0 0 0 0 0 0 0 0 0 0 0 0 0 0 0
0 0 0 0 0 0 0 0 0 0 0 0 0 0 0 0 0 0 0 0 0 0 0 0 0 0 0 0 0 0 0 0 0 0 0 0 0 0 0 0 0 0 0 0
0 0 0 0 0 0 0 0 0 0 0 0 0 0 0 0 0 0 0 0 0 0 0 0 0 0 0 0 0 0 0 0 0 0 0 0 0 0 0 0 0 0 0 0
Wind_Speed
7 6 6 8 9 10 12 12 12 12 11 9 7 6 5 4 3 3 2 2 2 2 2 1 2 2 2 2 2 3 3 3 3 3 3 3 3 2 2 2 2 1 1 1
8 6 7 9 10 11 12 12 13 14 13 7 6 5 5 4 4 4 4 3 3 2 2 2 2 2 2 2 3 3 3 3 2 2 3 3 3 3 2 2 1 1 1 1
8 5 7 11 9 10 10 9 10 12 9 6 6 5 5 5 5 5 4 3 3 3 2 2 2 2 2 2 3 3 3 2 2 2 3 3 3 3 2 2 2 1 1 1
7 6 10 3 1 5 7 8 9 9 8 7 7 6 5 5 5 4 4 3 3 3 2 2 2 2 2 3 3 3 2 2 2 2 3 3 3 3 3 2 2 2 2 2
6 8 9 6 3 4 7 8 7 8 8 6 3 5 5 3 3 4 3 3 2 2 2 2 2 2 3 3 3 3 2 2 2 2 3 3 3 3 3 3 3 3 2 2
7 8 8 3 2 2 5 8 4 5 6 5 5 6 2 1 2 2 2 2 2 2 2 2 2 2 3 3 3 3 2 2 2 2 3 3 3 3 3 3 3 2 2 2
9 9 7 1 2 4 7 3 1 4 5 6 7 5 3 0 1 1 2 2 2 2 2 2 2 3 4 4 3 3 2 2 2 2 2 2 2 2 2 2 2 2 2 2
7 9 7 3 5 6 5 4 3 4 5 6 5 3 2 2 2 2 2 2 2 2 2 1 2 3 4 3 2 2 2 2 2 2 1 2 2 2 2 2 2 2 2 2
6 6 3 4 6 6 6 6 5 5 4 5 5 5 4 3 3 2 2 2 2 2 1 1 2 3 3 2 2 3 3 3 2 2 1 2 2 2 2 2 2 2 2 2
8 9 8 8 9 8 8 8 7 5 5 5 5 5 4 3 3 3 3 2 2 2 2 1 2 2 2 3 3 4 4 3 3 2 2 2 1 2 2 2 2 2 2 2
11 10 9 9 9 8 7 7 7 6 6 6 5 5 5 4 3 3 2 2 2 3 2 2 2 2 2 3 4 4 4 3 3 2 2 2 1 1 2 1 1 2 2 2
9 8 7 8 6 6 7 7 6 6 5 5 5 5 5 4 3 3 3 3 2 2 2 2 2 2 3 3 4 4 3 3 2 2 2 2 1 1 2 1 1 2 3 3
10 8 9 9 9 7 7 7 6 6 6 5 4 4 4 3 3 3 3 3 3 3 3 2 2 2 2 3 4 4 3 3 2 2 2 2 2 2 1 0 1 2 2 2
9 9 10 9 8 6 6 6 6 5 5 5 4 4 4 4 3 3 4 4 3 3 3 3 3 3 2 3 4 4 3 3 2 2 2 2 2 2 2 2 2 1 2 2
9 9 9 7 6 6 5 4 4 4 4 4 3 4 4 4 4 4 3 3 3 3 3 3 3 3 2 3 4 4 3 2 2 2 2 2 2 2 2 3 2 2 1 1
8 8 8 8 7 5 5 5 5 4 4 4 5 5 5 4 4 3 3 3 4 4 4 4 4 3 3 3 3 3 2 2 2 2 2 2 2 2 2 2 2 2 2 2
8 7 7 7 7 7 6 6 5 5 5 5 5 5 4 4 4 4 3 4 4 4 4 4 3 3 4 4 3 2 2 3 3 3 2 2 2 3 3 3 3 3 2 1
9 9 8 8 7 7 6 6 6 6 5 5 4 5 5 5 5 5 4 4 4 4 3 3 3 3 4 4 3 2 2 2 2 2 2 2 2 3 3 3 3 3 3 1
7 7 8 8 8 7 7 6 6 5 5 4 5 6 6 6 5 5 4 4 5 4 4 3 4 4 4 4 3 3 3 3 2 2 2 2 3 2 3 3 3 3 3 2
5 6 6 6 6 6 6 6 6 5 5 5 6 6 6 5 5 5 5 5 4 3 3 3 5 5 4 4 4 3 3 3 3 2 2 2 2 2 2 3 3 3 3 3
5 5 5 5 5 6 6 6 5 5 5 5 6 7 6 5 5 5 5 5 4 3 4 4 4 4 4 3 5 3 3 3 3 3 2 2 3 3 3 3 3 3 3 3
5 4 4 4 4 4 4 5 5 5 5 5 5 5 5 5 5 5 6 4 3 4 4 4 4 4 4 4 4 4 4 4 3 3 3 3 3 3 3 3 3 3 3 3
5 5 4 4 4 4 4 4 4 4 5 5 5 6 6 5 4 4 4 3 3 5 4 3 4 5 6 4 4 4 4 4 3 3 3 3 3 3 3 4 3 3 3 4
5 5 4 4 4 4 4 4 3 3 3 4 4 5 5 4 4 4 3 3 4 5 4 4 5 6 6 4 3 4 4 4 3 3 3 3 3 3 4 3 3 3 4 5
5 4 4 4 3 3 3 3 2 2 3 2 3 3 3 3 3 3 3 4 5 5 4 4 6 6 5 3 3 4 3 3 3 3 3 3 3 4 4 4 4 4 4 4
4 4 3 4 3 3 2 2 2 2 2 2 2 2 2 2 3 3 3 4 5 4 3 3 4 5 4 3 3 3 3 3 3 4 4 4 4 4 4 4 5 4 4 4
4 3 3 3 2 2 2 2 2 2 2 2 2 2 2 2 2 3 3 3 3 3 3 3 3 3 3 3 3 3 3 3 3 3 4 4 4 4 4 5 4 4 4 5
Wind_Direction
266 273 258 258 247 236 240 251 262 272 275 279 281 284 288 283 275 264 257 246 237 234 232 218 189 175 168 170 164 168 175 183 189 191 186 180 180 189 188 196 212 217 227 249
257 250 252 260 255 245 245 252 257 266 272 280 279 276 276 270 260 255 256 252 250 249 239 223 204 185 175 179 171 173 177 184 185 188 186 185 185 186 183 190 208 212 231 245
263 255 260 253 243 236 236 239 250 261 273 274 273 274 274 269 250 251 255 254 245 245 240 239 235 217 197 186 169 174 179 176 180 183 190 194 191 188 192 200 210 226 237 245
266 257 250 260 189 242 247 250 251 261 274 272 275 282 276 261 252 254 252 246 243 239 236 242 238 221 202 182 172 175 172 173 183 185 190 196 195 195 207 209 211 223 227 226
248 257 264 255 221 223 245 261 249 252 263 266 275 272 250 232 250 260 256 247 243 234 230 228 223 210 191 182 178 175 170 178 193 198 193 195 199 206 213 214 215 222 226 233
239 253 256 258 158 209 250 256 232 245 255 249 242 263 263 166 253 260 260 244 234 227 218 215 208 203 199 193 190 186 182 192 197 201 202 200 207 216 214 213 220 224 229 237
240 251 258 271 147 192 237 290 352 256 256 245 249 289 342 289 251 257 249 234 225 219 220 217 200 201 207 202 202 191 183 182 188 197 207 204 207 211 208 207 213 223 227 237
228 241 247 141 174 224 284 330 289 270 262 255 260 280 267 244 236 230 227 215 213 219 221 211 201 204 207 208 198 177 176 181 191 198 198 206 201 198 203 199 206 224 234 242
235 250 305 208 238 274 301 286 281 271 265 255 249 249 242 239 231 221 221 216 228 227 218 209 209 210 209 199 183 179 183 186 190 191 196 211 206 192 191 200 216 232 237 247
252 256 267 263 263 271 275 275 275 268 257 243 241 239 231 230 227 223 221 222 221 217 211 219 223 215 211 178 179 190 191 189 190 187 189 208 216 203 201 203 213 230 240 251
257 265 271 260 257 269 275 274 270 260 251 242 238 236 230 227 228 228 225 219 219 220 219 218 222 213 192 179 186 193 190 188 190 187 194 202 203 247 241 234 263 256 256 259
258 267 270 279 279 276 270 267 262 256 254 245 239 233 229 229 228 221 214 209 216 226 229 219 214 212 188 186 190 189 185 185 186 189 196 204 198 171 33 321 357 294 296 293
271 281 282 286 282 274 271 269 265 256 249 242 233 225 227 227 226 221 215 212 214 217 220 216 208 209 198 192 192 195 193 184 183 197 201 205 215 224 230 223 216 232 245 267
261 267 272 269 271 275 272 268 265 255 246 239 229 218 218 225 227 222 219 218 213 205 209 211 208 209 201 197 194 196 194 186 194 201 208 214 224 236 243 248 257 250 221 227
258 261 266 276 273 268 261 254 251 246 240 234 228 223 218 221 224 225 220 213 202 200 205 206 207 208 197 198 199 197 195 195 202 204 212 219 225 233 243 252 261 269 274 219
262 264 259 257 257 255 251 247 243 239 233 231 228 227 225 223 222 221 214 203 200 206 210 208 210 204 197 198 196 198 198 185 210 213 216 220 224 231 241 248 257 263 267 275
256 259 259 258 255 252 251 253 251 242 238 237 232 226 219 214 213 215 213 206 210 217 214 212 213 200 194 195 195 199 197 180 192 212 217 223 228 233 237 240 249 260 266 284
252 258 262 262 259 256 257 259 256 248 242 241 232 223 219 218 218 216 211 207 208 215 219 212 205 196 193 197 201 202 197 190 201 212 218 225 238 245 246 247 253 260 269 256
267 264 264 264 262 259 256 257 253 248 243 231 227 227 228 229 223 216 211 210 212 218 220 208 193 199 198 194 201 197 196 199 205 212 219 217 231 239 245 251 255 258 263 264
287 281 272 268 266 263 260 256 250 244 237 227 226 226 227 226 219 214 212 217 223 226 219 204 198 202 202 195 195 200 200 203 209 214 224 232 237 244 248 253 257 258 258 261
296 290 280 270 265 264 261 255 245 239 235 227 224 223 223 219 216 214 212 220 220 211 206 195 201 202 202 190 193 206 206 210 214 218 225 233 238 243 246 250 254 256 258 260
299 291 286 281 275 272 265 254 245 238 232 227 225 220 215 214 213 217 222 228 212 185 193 196 203 198 195 191 198 206 211 216 222 225 229 234 237 241 245 249 250 253 256 259
296 292 286 280 274 274 272 260 246 236 228 223 219 215 214 213 211 212 221 214 197 187 197 200 197 189 195 201 205 209 212 217 223 229 233 236 239 242 245 247 251 254 258 259
292 293 292 287 279 267 261 260 253 240 230 230 227 221 216 210 213 219 219 183 186 185 200 192 188 193 202 208 208 213 216 220 226 233 236 237 239 242 245 246 250 254 255 258
288 286 283 278 271 267 266 261 250 237 226 223 225 225 225 219 214 206 200 191 181 186 200 188 187 197 207 208 210 218 223 225 231 236 236 237 238 241 243 245 249 253 256 257
286 284 282 278 279 275 264 247 239 232 220 217 222 218 207 195 194 196 195 192 188 189 197 190 189 196 208 212 215 220 225 224 225 232 237 240 242 245 247 248 252 253 256 259
287 289 290 291 290 280 267 252 245 239 229 220 224 215 195 188 187 187 183 180 181 186 192 193 194 199 206 211 217 222 227 230 232 235 238 240 242 245 247 250 252 253 256 257